Location: *
(50.8512°N, 5.6907°E)
Time: 13:01:31
(UTC+00:00)

Spot 2 Rocket - Pass Details

Date: 09 April 2020
Orbit: 757 x 773 km, 98.6° (Epoch: 27 May)

Event Time Altitude Azimuth Distance (km) Brightness Sun altitude
Exits shadow 20:22:15 27° 157° (SSE) 1,460 4.5 -17.6°
Maximum altitude 20:25:08 81° 73° (ENE) 788 3.4 -17.9°
Drops below altitude 10° 20:30:16 10° 347° (NNW) 2,324 6.8 -18.5°
Sets 20:32:34 0° 346° (NNW) 3,253 7.6 -18.8°
